Year,Month,Day,Hour,Minute,Value (Times are PST for temperature in C)
2015,07,05,00,00,19.90
2015,07,05,00,01,19.90
2015,07,05,00,02,19.90
2015,07,05,00,03,19.80
2015,07,05,00,04,19.80
2015,07,05,00,05,19.80
2015,07,05,00,06,19.80
2015,07,05,00,07,19.80
2015,07,05,00,08,19.80
2015,07,05,00,09,19.70
2015,07,05,00,10,19.70
2015,07,05,00,11,19.70
2015,07,05,00,12,19.70
2015,07,05,00,13,19.70
2015,07,05,00,14,19.70
2015,07,05,00,15,19.60
2015,07,05,00,16,19.60
2015,07,05,00,17,19.60
2015,07,05,00,18,19.60
2015,07,05,00,19,19.60
2015,07,05,00,20,19.60
2015,07,05,00,21,19.60
2015,07,05,00,22,19.60
2015,07,05,00,23,19.50
2015,07,05,00,24,19.50
2015,07,05,00,25,19.50
2015,07,05,00,26,19.50
2015,07,05,00,27,19.40
2015,07,05,00,28,19.40
2015,07,05,00,29,19.40
2015,07,05,00,30,19.40
2015,07,05,00,31,19.30
2015,07,05,00,32,19.30
2015,07,05,00,33,19.30
2015,07,05,00,34,19.20
2015,07,05,00,35,19.20
2015,07,05,00,36,19.10
2015,07,05,00,37,19.10
2015,07,05,00,38,19.10
2015,07,05,00,39,19.10
2015,07,05,00,40,19.10
2015,07,05,00,41,19.00
2015,07,05,00,42,18.90
2015,07,05,00,43,18.90
2015,07,05,00,44,18.90
2015,07,05,00,45,18.90
2015,07,05,00,46,18.90
2015,07,05,00,47,18.90
2015,07,05,00,48,18.80
2015,07,05,00,49,18.80
2015,07,05,00,50,18.80
2015,07,05,00,51,18.80
2015,07,05,00,52,18.80
2015,07,05,00,53,18.70
2015,07,05,00,54,18.70
2015,07,05,00,55,18.70
2015,07,05,00,56,18.70
2015,07,05,00,57,18.70
2015,07,05,00,58,18.70
2015,07,05,00,59,18.70
2015,07,05,01,00,18.60
2015,07,05,01,01,18.60
2015,07,05,01,02,18.60
2015,07,05,01,03,18.60
2015,07,05,01,04,18.60
2015,07,05,01,05,18.60
2015,07,05,01,06,18.60
2015,07,05,01,07,18.60
2015,07,05,01,08,18.60
2015,07,05,01,09,18.60
2015,07,05,01,10,18.60
2015,07,05,01,11,18.60
2015,07,05,01,12,18.60
2015,07,05,01,13,18.60
2015,07,05,01,14,18.60
2015,07,05,01,15,18.60
2015,07,05,01,16,18.50
2015,07,05,01,17,18.50
2015,07,05,01,18,18.50
2015,07,05,01,19,18.50
2015,07,05,01,20,18.40
2015,07,05,01,21,18.40
2015,07,05,01,22,18.40
2015,07,05,01,23,18.30
2015,07,05,01,24,18.30
2015,07,05,01,25,18.30
2015,07,05,01,26,18.30
2015,07,05,01,27,18.30
2015,07,05,01,28,18.20
2015,07,05,01,29,18.20
2015,07,05,01,30,18.20
2015,07,05,01,31,18.20
2015,07,05,01,32,18.20
2015,07,05,01,33,18.20
2015,07,05,01,34,18.20
2015,07,05,01,35,18.10
2015,07,05,01,36,18.10
2015,07,05,01,37,18.10
2015,07,05,01,38,18.10
2015,07,05,01,39,18.00
2015,07,05,01,40,17.90
2015,07,05,01,41,17.90
2015,07,05,01,42,17.90
2015,07,05,01,43,17.90
2015,07,05,01,44,17.90
2015,07,05,01,45,17.90
2015,07,05,01,46,17.90
2015,07,05,01,47,17.90
2015,07,05,01,48,17.90
2015,07,05,01,49,17.90
2015,07,05,01,50,17.80
2015,07,05,01,51,17.80
2015,07,05,01,52,17.80
2015,07,05,01,53,17.80
2015,07,05,01,54,17.80
2015,07,05,01,55,17.80
2015,07,05,01,56,17.80
2015,07,05,01,57,17.80
2015,07,05,01,58,17.80
2015,07,05,01,59,17.70
2015,07,05,02,00,17.70
2015,07,05,02,01,17.70
2015,07,05,02,02,17.70
2015,07,05,02,03,17.70
2015,07,05,02,04,17.70
2015,07,05,02,05,17.70
2015,07,05,02,06,17.70
2015,07,05,02,07,17.70
2015,07,05,02,08,17.70
2015,07,05,02,09,17.60
2015,07,05,02,10,17.60
2015,07,05,02,11,17.60
2015,07,05,02,12,17.60
2015,07,05,02,13,17.60
2015,07,05,02,14,17.50
2015,07,05,02,15,17.50
2015,07,05,02,16,17.50
2015,07,05,02,17,17.50
2015,07,05,02,18,17.40
2015,07,05,02,19,17.40
2015,07,05,02,20,17.40
2015,07,05,02,21,17.30
2015,07,05,02,22,17.30
2015,07,05,02,23,17.30
2015,07,05,02,24,17.30
2015,07,05,02,25,17.30
2015,07,05,02,26,17.30
2015,07,05,02,27,17.30
2015,07,05,02,28,17.30
2015,07,05,02,29,17.20
2015,07,05,02,30,17.20
2015,07,05,02,31,17.20
2015,07,05,02,32,17.20
2015,07,05,02,33,17.10
2015,07,05,02,34,17.10
2015,07,05,02,35,17.10
2015,07,05,02,36,17.00
2015,07,05,02,37,17.00
2015,07,05,02,38,17.00
2015,07,05,02,39,16.90
2015,07,05,02,40,16.90
2015,07,05,02,41,16.90
2015,07,05,02,42,16.90
2015,07,05,02,43,16.90
2015,07,05,02,44,16.90
2015,07,05,02,45,16.90
2015,07,05,02,46,16.90
2015,07,05,02,47,16.90
2015,07,05,02,48,16.90
2015,07,05,02,49,16.90
2015,07,05,02,50,16.90
2015,07,05,02,51,16.90
2015,07,05,02,52,16.90
2015,07,05,02,53,16.90
2015,07,05,02,54,16.90
2015,07,05,02,55,16.90
2015,07,05,02,56,16.90
2015,07,05,02,57,16.80
2015,07,05,02,58,16.80
2015,07,05,02,59,16.80
2015,07,05,03,00,16.80
2015,07,05,03,01,16.70
2015,07,05,03,02,16.70
2015,07,05,03,03,16.70
2015,07,05,03,04,16.70
2015,07,05,03,05,16.70
2015,07,05,03,06,16.70
2015,07,05,03,07,16.70
2015,07,05,03,08,16.70
2015,07,05,03,09,16.70
2015,07,05,03,10,16.70
2015,07,05,03,11,16.70
2015,07,05,03,12,16.70
2015,07,05,03,13,16.70
2015,07,05,03,14,16.70
2015,07,05,03,15,16.70
2015,07,05,03,16,16.70
2015,07,05,03,17,16.70
2015,07,05,03,18,16.70
2015,07,05,03,19,16.70
2015,07,05,03,20,16.70
2015,07,05,03,21,16.70
2015,07,05,03,22,16.70
2015,07,05,03,23,16.70
2015,07,05,03,24,16.70
2015,07,05,03,25,16.70
2015,07,05,03,26,16.70
2015,07,05,03,27,16.70
2015,07,05,03,28,16.70
2015,07,05,03,29,16.70
2015,07,05,03,30,16.60
2015,07,05,03,31,16.60
2015,07,05,03,32,16.60
2015,07,05,03,33,16.60
2015,07,05,03,34,16.60
2015,07,05,03,35,16.50
2015,07,05,03,36,16.40
2015,07,05,03,37,16.40
2015,07,05,03,38,16.40
2015,07,05,03,39,16.40
2015,07,05,03,40,16.40
2015,07,05,03,41,16.40
2015,07,05,03,42,16.40
2015,07,05,03,43,16.40
2015,07,05,03,44,16.40
2015,07,05,03,45,16.40
2015,07,05,03,46,16.40
2015,07,05,03,47,16.40
2015,07,05,03,48,16.40
2015,07,05,03,49,16.40
2015,07,05,03,50,16.30
2015,07,05,03,51,16.30
2015,07,05,03,52,16.30
2015,07,05,03,53,16.30
2015,07,05,03,54,16.40
2015,07,05,03,55,16.40
2015,07,05,03,56,16.40
2015,07,05,03,57,16.40
2015,07,05,03,58,16.50
2015,07,05,03,59,16.60
2015,07,05,04,00,16.70
2015,07,05,04,01,16.70
2015,07,05,04,02,16.80
2015,07,05,04,03,16.80
2015,07,05,04,04,16.90
2015,07,05,04,05,16.90
2015,07,05,04,06,17.00
2015,07,05,04,07,17.00
2015,07,05,04,08,17.00
2015,07,05,04,09,17.00
2015,07,05,04,10,16.90
2015,07,05,04,11,16.90
2015,07,05,04,12,16.90
2015,07,05,04,13,16.90
2015,07,05,04,14,16.90
2015,07,05,04,15,16.90
2015,07,05,04,16,16.90
2015,07,05,04,17,16.90
2015,07,05,04,18,16.90
2015,07,05,04,19,16.80
2015,07,05,04,20,16.80
2015,07,05,04,21,16.70
2015,07,05,04,22,16.70
2015,07,05,04,23,16.70
2015,07,05,04,24,16.70
2015,07,05,04,25,16.70
2015,07,05,04,26,16.70
2015,07,05,04,27,16.80
2015,07,05,04,28,16.80
2015,07,05,04,29,16.80
2015,07,05,04,30,16.90
2015,07,05,04,31,16.90
2015,07,05,04,32,16.90
2015,07,05,04,33,17.00
2015,07,05,04,34,17.00
2015,07,05,04,35,17.00
2015,07,05,04,36,17.10
2015,07,05,04,37,17.10
2015,07,05,04,38,17.20
2015,07,05,04,39,17.20
2015,07,05,04,40,17.30
2015,07,05,04,41,17.30
2015,07,05,04,42,17.30
2015,07,05,04,43,17.30
2015,07,05,04,44,17.30
2015,07,05,04,45,17.40
2015,07,05,04,46,17.40
2015,07,05,04,47,17.40
2015,07,05,04,48,17.40
2015,07,05,04,49,17.40
2015,07,05,04,50,17.40
2015,07,05,04,51,17.40
2015,07,05,04,52,17.40
2015,07,05,04,53,17.40
2015,07,05,04,54,17.50
2015,07,05,04,55,17.50
2015,07,05,04,56,17.50
2015,07,05,04,57,17.60
2015,07,05,04,58,17.60
2015,07,05,04,59,17.70
2015,07,05,05,00,17.70
2015,07,05,05,01,17.70
2015,07,05,05,02,17.70
2015,07,05,05,03,17.70
2015,07,05,05,04,17.70
2015,07,05,05,05,17.70
2015,07,05,05,06,17.70
2015,07,05,05,07,17.70
2015,07,05,05,08,17.70
2015,07,05,05,09,17.70
2015,07,05,05,10,17.70
2015,07,05,05,11,17.70
2015,07,05,05,12,17.70
2015,07,05,05,13,17.70
2015,07,05,05,14,17.60
2015,07,05,05,15,17.60
2015,07,05,05,16,17.60
2015,07,05,05,17,17.60
2015,07,05,05,18,17.60
2015,07,05,05,19,17.60
2015,07,05,05,20,17.60
2015,07,05,05,21,17.50
2015,07,05,05,22,17.50
2015,07,05,05,23,17.50
2015,07,05,05,24,17.50
2015,07,05,05,25,17.40
2015,07,05,05,26,17.40
2015,07,05,05,27,17.40
2015,07,05,05,28,17.40
2015,07,05,05,29,17.40
2015,07,05,05,30,17.40
2015,07,05,05,31,17.40
2015,07,05,05,32,17.40
2015,07,05,05,33,17.40
2015,07,05,05,34,17.40
2015,07,05,05,35,17.40
2015,07,05,05,36,17.40
2015,07,05,05,37,17.40
2015,07,05,05,38,17.40
2015,07,05,05,39,17.50
2015,07,05,05,40,17.50
2015,07,05,05,41,17.50
2015,07,05,05,42,17.50
2015,07,05,05,43,17.50
2015,07,05,05,44,17.60
2015,07,05,05,45,17.60
2015,07,05,05,46,17.60
2015,07,05,05,47,17.60
2015,07,05,05,48,17.60
2015,07,05,05,49,17.70
2015,07,05,05,50,17.70
2015,07,05,05,51,17.70
2015,07,05,05,52,17.70
2015,07,05,05,53,17.70
2015,07,05,05,54,17.80
2015,07,05,05,55,17.80
2015,07,05,05,56,17.80
2015,07,05,05,57,17.80
2015,07,05,05,58,17.90
2015,07,05,05,59,17.90
2015,07,05,06,00,17.90
2015,07,05,06,01,17.90
2015,07,05,06,02,18.00
2015,07,05,06,03,18.10
2015,07,05,06,04,18.20
2015,07,05,06,05,18.20
2015,07,05,06,06,18.20
2015,07,05,06,07,18.50
2015,07,05,06,08,18.80
2015,07,05,06,09,19.20
2015,07,05,06,10,19.70
2015,07,05,06,11,20.00
2015,07,05,06,12,20.20
2015,07,05,06,13,20.40
2015,07,05,06,14,20.50
2015,07,05,06,15,20.70
2015,07,05,06,16,20.90
2015,07,05,06,17,21.00
2015,07,05,06,18,21.10
2015,07,05,06,19,21.20
2015,07,05,06,20,21.30
2015,07,05,06,21,21.50
2015,07,05,06,22,21.70
2015,07,05,06,23,21.80
2015,07,05,06,24,21.90
2015,07,05,06,25,22.00
2015,07,05,06,26,22.20
2015,07,05,06,27,22.30
2015,07,05,06,28,22.30
2015,07,05,06,29,22.40
2015,07,05,06,30,22.40
2015,07,05,06,31,22.60
2015,07,05,06,32,22.70
2015,07,05,06,33,22.80
2015,07,05,06,34,22.90
2015,07,05,06,35,23.00
2015,07,05,06,36,23.10
2015,07,05,06,37,23.20
2015,07,05,06,38,23.20
2015,07,05,06,39,23.30
2015,07,05,06,40,23.30
2015,07,05,06,41,23.30
2015,07,05,06,42,23.30
2015,07,05,06,43,23.30
2015,07,05,06,44,23.30
2015,07,05,06,45,23.30
2015,07,05,06,46,23.30
2015,07,05,06,47,23.30
2015,07,05,06,48,23.30
2015,07,05,06,49,23.30
2015,07,05,06,50,23.30
2015,07,05,06,51,23.30
2015,07,05,06,52,23.30
2015,07,05,06,53,23.30
2015,07,05,06,54,23.30
2015,07,05,06,55,23.40
2015,07,05,06,56,23.30
2015,07,05,06,57,23.30
2015,07,05,06,58,23.30
2015,07,05,06,59,23.30
2015,07,05,07,00,23.30
2015,07,05,07,01,23.10
2015,07,05,07,02,23.00
2015,07,05,07,03,22.80
2015,07,05,07,04,22.60
2015,07,05,07,05,22.50
2015,07,05,07,06,22.30
2015,07,05,07,07,22.20
2015,07,05,07,08,22.10
2015,07,05,07,09,22.00
2015,07,05,07,10,21.80
2015,07,05,07,11,21.80
2015,07,05,07,12,21.70
2015,07,05,07,13,21.60
2015,07,05,07,14,21.60
2015,07,05,07,15,21.50
2015,07,05,07,16,21.40
2015,07,05,07,17,21.30
2015,07,05,07,18,21.30
2015,07,05,07,19,21.30
2015,07,05,07,20,21.30
2015,07,05,07,21,21.40
2015,07,05,07,22,21.40
2015,07,05,07,23,21.40
2015,07,05,07,24,21.40
2015,07,05,07,25,21.50
2015,07,05,07,26,21.60
2015,07,05,07,27,21.60
2015,07,05,07,28,21.60
2015,07,05,07,29,21.60
2015,07,05,07,30,21.70
2015,07,05,07,31,21.70
2015,07,05,07,32,21.80
2015,07,05,07,33,21.90
2015,07,05,07,34,22.00
2015,07,05,07,35,22.10
2015,07,05,07,36,22.10
2015,07,05,07,37,22.20
2015,07,05,07,38,22.30
2015,07,05,07,39,22.40
2015,07,05,07,40,22.60
2015,07,05,07,41,22.80
2015,07,05,07,42,23.10
2015,07,05,07,43,23.40
2015,07,05,07,44,23.70
2015,07,05,07,45,23.90
2015,07,05,07,46,24.10
2015,07,05,07,47,24.30
2015,07,05,07,48,24.40
2015,07,05,07,49,24.60
2015,07,05,07,50,24.70
2015,07,05,07,51,24.80
2015,07,05,07,52,24.90
2015,07,05,07,53,25.00
2015,07,05,07,54,25.10
2015,07,05,07,55,25.20
2015,07,05,07,56,25.20
2015,07,05,07,57,25.30
2015,07,05,07,58,25.30
2015,07,05,07,59,25.40
2015,07,05,08,00,25.40
2015,07,05,08,01,25.40
2015,07,05,08,02,25.40
2015,07,05,08,03,25.40
2015,07,05,08,04,25.50
2015,07,05,08,05,25.50
2015,07,05,08,06,25.50
2015,07,05,08,07,25.50
2015,07,05,08,08,25.50
2015,07,05,08,09,25.50
2015,07,05,08,10,25.60
2015,07,05,08,11,25.60
2015,07,05,08,12,25.60
2015,07,05,08,13,25.60
2015,07,05,08,14,25.60
2015,07,05,08,15,25.70
2015,07,05,08,16,25.70
2015,07,05,08,17,25.70
2015,07,05,08,18,25.70
2015,07,05,08,19,25.70
2015,07,05,08,20,25.80
2015,07,05,08,21,25.80
2015,07,05,08,22,25.80
2015,07,05,08,23,25.90
2015,07,05,08,24,25.90
2015,07,05,08,25,25.90
2015,07,05,08,26,25.90
2015,07,05,08,27,25.90
2015,07,05,08,28,26.00
2015,07,05,08,29,26.00
2015,07,05,08,30,26.00
2015,07,05,08,31,26.00
2015,07,05,08,32,26.00
2015,07,05,08,33,26.10
2015,07,05,08,34,26.10
2015,07,05,08,35,26.10
2015,07,05,08,36,26.10
2015,07,05,08,37,26.20
2015,07,05,08,38,26.20
2015,07,05,08,39,26.20
2015,07,05,08,40,26.20
2015,07,05,08,41,26.30
2015,07,05,08,42,26.30
2015,07,05,08,43,26.20
2015,07,05,08,44,26.20
2015,07,05,08,45,26.10
2015,07,05,08,46,26.00
2015,07,05,08,47,25.90
2015,07,05,08,48,25.80
2015,07,05,08,49,25.80
2015,07,05,08,50,25.70
2015,07,05,08,51,25.60
2015,07,05,08,52,25.60
2015,07,05,08,53,25.60
2015,07,05,08,54,25.60
2015,07,05,08,55,25.70
2015,07,05,08,56,25.80
2015,07,05,08,57,25.80
2015,07,05,08,58,25.80
2015,07,05,08,59,25.90
2015,07,05,09,00,25.90
2015,07,05,09,01,25.90
2015,07,05,09,02,25.90
2015,07,05,09,03,25.90
2015,07,05,09,04,25.90
2015,07,05,09,05,25.90
2015,07,05,09,06,25.90
2015,07,05,09,07,25.90
2015,07,05,09,08,26.00
2015,07,05,09,09,26.00
2015,07,05,09,10,26.00
2015,07,05,09,11,26.10
2015,07,05,09,12,26.10
2015,07,05,09,13,26.20
2015,07,05,09,14,26.20
2015,07,05,09,15,26.20
2015,07,05,09,16,26.20
2015,07,05,09,17,26.20
2015,07,05,09,18,26.20
2015,07,05,09,19,26.20
2015,07,05,09,20,26.20
2015,07,05,09,21,26.20
2015,07,05,09,22,26.20
2015,07,05,09,23,26.10
2015,07,05,09,24,26.00
2015,07,05,09,25,26.00
2015,07,05,09,26,25.90
2015,07,05,09,27,25.90
2015,07,05,09,28,25.90
2015,07,05,09,29,26.00
2015,07,05,09,30,26.00
2015,07,05,09,31,26.00
2015,07,05,09,32,26.10
2015,07,05,09,33,26.20
2015,07,05,09,34,26.30
2015,07,05,09,35,26.30
2015,07,05,09,36,26.30
2015,07,05,09,37,26.40
2015,07,05,09,38,26.60
2015,07,05,09,39,26.60
2015,07,05,09,40,26.60
2015,07,05,09,41,26.60
2015,07,05,09,42,26.70
2015,07,05,09,43,26.70
2015,07,05,09,44,26.80
2015,07,05,09,45,26.90
2015,07,05,09,46,27.00
2015,07,05,09,47,27.10
2015,07,05,09,48,27.20
2015,07,05,09,49,27.20
2015,07,05,09,50,27.20
2015,07,05,09,51,27.30
2015,07,05,09,52,27.30
2015,07,05,09,53,27.30
2015,07,05,09,54,27.30
2015,07,05,09,55,27.30
2015,07,05,09,56,27.30
2015,07,05,09,57,27.30
2015,07,05,09,58,27.30
2015,07,05,09,59,27.30
2015,07,05,10,00,27.40
2015,07,05,10,01,27.40
2015,07,05,10,02,27.40
2015,07,05,10,03,27.40
2015,07,05,10,04,27.40
2015,07,05,10,05,27.50
2015,07,05,10,06,27.60
2015,07,05,10,07,27.60
2015,07,05,10,08,27.60
2015,07,05,10,09,27.50
2015,07,05,10,10,27.40
2015,07,05,10,11,27.40
2015,07,05,10,12,27.40
2015,07,05,10,13,27.40
2015,07,05,10,14,27.40
2015,07,05,10,15,27.50
2015,07,05,10,16,27.40
2015,07,05,10,17,27.40
2015,07,05,10,18,27.40
2015,07,05,10,19,27.40
2015,07,05,10,20,27.30
2015,07,05,10,21,27.30
2015,07,05,10,22,27.30
2015,07,05,10,23,27.30
2015,07,05,10,24,27.30
2015,07,05,10,25,27.30
2015,07,05,10,26,27.30
2015,07,05,10,27,27.30
2015,07,05,10,28,27.30
2015,07,05,10,29,27.30
2015,07,05,10,30,27.30
2015,07,05,10,31,27.40
2015,07,05,10,32,27.40
2015,07,05,10,33,27.40
2015,07,05,10,34,27.40
2015,07,05,10,35,27.40
2015,07,05,10,36,27.40
2015,07,05,10,37,27.40
2015,07,05,10,38,27.30
2015,07,05,10,39,27.30
2015,07,05,10,40,27.30
2015,07,05,10,41,27.30
2015,07,05,10,42,27.30
2015,07,05,10,43,27.30
2015,07,05,10,44,27.30
2015,07,05,10,45,27.30
2015,07,05,10,46,27.30
2015,07,05,10,47,27.30
2015,07,05,10,48,27.30
2015,07,05,10,49,27.30
2015,07,05,10,50,27.30
2015,07,05,10,51,27.30
2015,07,05,10,52,27.30
2015,07,05,10,53,27.30
2015,07,05,10,54,27.30
2015,07,05,10,55,27.30
2015,07,05,10,56,27.30
2015,07,05,10,57,27.30
2015,07,05,10,58,27.30
2015,07,05,10,59,27.30
2015,07,05,11,00,27.30
2015,07,05,11,01,27.30
2015,07,05,11,02,27.30
2015,07,05,11,03,27.30
2015,07,05,11,04,27.30
2015,07,05,11,05,27.30
2015,07,05,11,06,27.30
2015,07,05,11,07,27.30
2015,07,05,11,08,27.30
2015,07,05,11,09,27.30
2015,07,05,11,10,27.30
2015,07,05,11,11,27.30
2015,07,05,11,12,27.30
2015,07,05,11,13,27.30
2015,07,05,11,14,27.20
2015,07,05,11,15,27.20
2015,07,05,11,16,27.20
2015,07,05,11,17,27.20
2015,07,05,11,18,27.10
2015,07,05,11,19,27.10
2015,07,05,11,20,27.10
2015,07,05,11,21,27.10
2015,07,05,11,22,27.10
2015,07,05,11,23,27.00
2015,07,05,11,24,26.90
2015,07,05,11,25,26.90
2015,07,05,11,26,26.90
2015,07,05,11,27,26.90
2015,07,05,11,28,26.90
2015,07,05,11,29,26.90
2015,07,05,11,30,26.90
2015,07,05,11,31,26.90
2015,07,05,11,32,26.90
2015,07,05,11,33,26.90
2015,07,05,11,34,26.80
2015,07,05,11,35,26.80
2015,07,05,11,36,26.80
2015,07,05,11,37,26.80
2015,07,05,11,38,26.80
2015,07,05,11,39,26.80
2015,07,05,11,40,26.80
2015,07,05,11,41,26.80
2015,07,05,11,42,26.80
2015,07,05,11,43,26.80
2015,07,05,11,44,26.80
2015,07,05,11,45,26.80
2015,07,05,11,46,26.80
2015,07,05,11,47,26.80
2015,07,05,11,48,26.80
2015,07,05,11,49,26.80
2015,07,05,11,50,26.80
2015,07,05,11,51,26.80
2015,07,05,11,52,26.90
2015,07,05,11,53,26.90
2015,07,05,11,54,26.90
2015,07,05,11,55,26.90
2015,07,05,11,56,26.90
2015,07,05,11,57,26.90
2015,07,05,11,58,26.90
2015,07,05,11,59,26.90
2015,07,05,12,00,26.90
2015,07,05,12,01,26.90
2015,07,05,12,02,26.90
2015,07,05,12,03,26.90
2015,07,05,12,04,26.90
2015,07,05,12,05,26.90
2015,07,05,12,06,27.00
2015,07,05,12,07,27.10
2015,07,05,12,08,27.10
2015,07,05,12,09,27.10
2015,07,05,12,10,27.10
2015,07,05,12,11,27.10
2015,07,05,12,12,27.10
2015,07,05,12,13,27.20
2015,07,05,12,14,27.20
2015,07,05,12,15,27.20
2015,07,05,12,16,27.20
2015,07,05,12,17,27.20
2015,07,05,12,18,27.30
2015,07,05,12,19,27.30
2015,07,05,12,20,27.30
2015,07,05,12,21,27.30
2015,07,05,12,22,27.30
2015,07,05,12,23,27.30
2015,07,05,12,24,27.40
2015,07,05,12,25,27.40
2015,07,05,12,26,27.40
2015,07,05,12,27,27.50
2015,07,05,12,28,27.60
2015,07,05,12,29,27.60
2015,07,05,12,30,27.60
2015,07,05,12,31,27.70
2015,07,05,12,32,27.70
2015,07,05,12,33,27.70
2015,07,05,12,34,27.70
2015,07,05,12,35,27.80
2015,07,05,12,36,27.80
2015,07,05,12,37,27.90
2015,07,05,12,38,27.90
2015,07,05,12,39,27.90
2015,07,05,12,40,28.00
2015,07,05,12,41,28.00
2015,07,05,12,42,28.10
2015,07,05,12,43,28.10
2015,07,05,12,44,28.10
2015,07,05,12,45,28.10
2015,07,05,12,46,28.00
2015,07,05,12,47,28.00
2015,07,05,12,48,28.00
2015,07,05,12,49,28.00
2015,07,05,12,50,28.00
2015,07,05,12,51,28.00
2015,07,05,12,52,28.10
2015,07,05,12,53,28.10
2015,07,05,12,54,28.10
2015,07,05,12,55,28.10
2015,07,05,12,56,28.20
2015,07,05,12,57,28.20
2015,07,05,12,58,28.30
2015,07,05,12,59,28.30
2015,07,05,13,00,28.40
2015,07,05,13,01,28.40
2015,07,05,13,02,28.40
2015,07,05,13,03,28.40
2015,07,05,13,04,28.40
2015,07,05,13,05,28.50
2015,07,05,13,06,28.50
2015,07,05,13,07,28.50
2015,07,05,13,08,28.50
2015,07,05,13,09,28.60
2015,07,05,13,10,28.60
2015,07,05,13,11,28.60
2015,07,05,13,12,28.60
2015,07,05,13,13,28.60
2015,07,05,13,14,28.60
2015,07,05,13,15,28.60
2015,07,05,13,16,28.60
2015,07,05,13,17,28.60
2015,07,05,13,18,28.70
2015,07,05,13,19,28.70
2015,07,05,13,20,28.80
2015,07,05,13,21,28.80
2015,07,05,13,22,28.80
2015,07,05,13,23,28.80
2015,07,05,13,24,28.80
2015,07,05,13,25,28.80
2015,07,05,13,26,28.80
2015,07,05,13,27,28.80
2015,07,05,13,28,28.90
2015,07,05,13,29,28.90
2015,07,05,13,30,28.90
2015,07,05,13,31,28.90
2015,07,05,13,32,28.90
2015,07,05,13,33,28.90
2015,07,05,13,34,29.00
2015,07,05,13,35,29.10
2015,07,05,13,36,29.10
2015,07,05,13,37,29.20
2015,07,05,13,38,29.20
2015,07,05,13,39,29.30
2015,07,05,13,40,29.20
2015,07,05,13,41,29.10
2015,07,05,13,42,29.00
2015,07,05,13,43,28.90
2015,07,05,13,44,28.70
2015,07,05,13,45,28.60
2015,07,05,13,46,28.40
2015,07,05,13,47,28.10
2015,07,05,13,48,28.10
2015,07,05,13,49,28.00
2015,07,05,13,50,27.90
2015,07,05,13,51,27.70
2015,07,05,13,52,27.70
2015,07,05,13,53,27.70
2015,07,05,13,54,27.70
2015,07,05,13,55,27.70
2015,07,05,13,56,27.80
2015,07,05,13,57,27.70
2015,07,05,13,58,27.80
2015,07,05,13,59,27.80
2015,07,05,14,00,27.80
2015,07,05,14,01,27.90
2015,07,05,14,02,27.90
2015,07,05,14,03,27.80
2015,07,05,14,04,27.80
2015,07,05,14,05,27.70
2015,07,05,14,06,27.70
2015,07,05,14,07,27.70
2015,07,05,14,08,27.70
2015,07,05,14,09,27.80
2015,07,05,14,10,27.80
2015,07,05,14,11,27.90
2015,07,05,14,12,27.90
2015,07,05,14,13,27.90
2015,07,05,14,14,27.90
2015,07,05,14,15,27.80
2015,07,05,14,16,27.80
2015,07,05,14,17,27.90
2015,07,05,14,18,28.00
2015,07,05,14,19,28.00
2015,07,05,14,20,28.10
2015,07,05,14,21,28.10
2015,07,05,14,22,28.20
2015,07,05,14,23,28.20
2015,07,05,14,24,28.30
2015,07,05,14,25,28.30
2015,07,05,14,26,28.40
2015,07,05,14,27,28.50
2015,07,05,14,28,28.60
2015,07,05,14,29,28.70
2015,07,05,14,30,28.80
2015,07,05,14,31,28.80
2015,07,05,14,32,28.90
2015,07,05,14,33,28.90
2015,07,05,14,34,28.90
2015,07,05,14,35,29.00
2015,07,05,14,36,29.10
2015,07,05,14,37,29.20
2015,07,05,14,38,29.20
2015,07,05,14,39,29.30
2015,07,05,14,40,29.20
2015,07,05,14,41,29.20
2015,07,05,14,42,29.20
2015,07,05,14,43,29.20
2015,07,05,14,44,29.20
2015,07,05,14,45,29.30
2015,07,05,14,46,29.30
2015,07,05,14,47,29.30
2015,07,05,14,48,29.20
2015,07,05,14,49,29.10
2015,07,05,14,50,28.90
2015,07,05,14,51,28.90
2015,07,05,14,52,28.90
2015,07,05,14,53,29.00
2015,07,05,14,54,29.10
2015,07,05,14,55,29.20
2015,07,05,14,56,29.20
2015,07,05,14,57,29.30
2015,07,05,14,58,29.30
2015,07,05,14,59,29.30
2015,07,05,15,00,29.30
2015,07,05,15,01,29.30
2015,07,05,15,02,29.30
2015,07,05,15,03,29.30
2015,07,05,15,04,29.30
2015,07,05,15,05,29.30
2015,07,05,15,06,29.30
2015,07,05,15,07,29.30
2015,07,05,15,08,29.30
2015,07,05,15,09,29.30
2015,07,05,15,10,29.40
2015,07,05,15,11,29.40
2015,07,05,15,12,29.50
2015,07,05,15,13,29.50
2015,07,05,15,14,29.60
2015,07,05,15,15,29.70
2015,07,05,15,16,29.70
2015,07,05,15,17,29.80
2015,07,05,15,18,29.90
2015,07,05,15,19,29.90
2015,07,05,15,20,30.10
2015,07,05,15,21,30.20
2015,07,05,15,22,30.30
2015,07,05,15,23,30.40
2015,07,05,15,24,30.40
2015,07,05,15,25,30.60
2015,07,05,15,26,30.60
2015,07,05,15,27,30.70
2015,07,05,15,28,30.70
2015,07,05,15,29,30.70
2015,07,05,15,30,30.70
2015,07,05,15,31,30.70
2015,07,05,15,32,30.80
2015,07,05,15,33,30.80
2015,07,05,15,34,30.80
2015,07,05,15,35,30.80
2015,07,05,15,36,30.90
2015,07,05,15,37,31.00
2015,07,05,15,38,31.00
2015,07,05,15,39,31.10
2015,07,05,15,40,31.10
2015,07,05,15,41,31.20
2015,07,05,15,42,31.20
2015,07,05,15,43,31.30
2015,07,05,15,44,31.30
2015,07,05,15,45,31.40
2015,07,05,15,46,31.40
2015,07,05,15,47,31.40
2015,07,05,15,48,31.40
2015,07,05,15,49,31.50
2015,07,05,15,50,31.60
2015,07,05,15,51,31.60
2015,07,05,15,52,31.60
2015,07,05,15,53,31.60
2015,07,05,15,54,31.60
2015,07,05,15,55,31.60
2015,07,05,15,56,31.60
2015,07,05,15,57,31.50
2015,07,05,15,58,31.40
2015,07,05,15,59,31.30
2015,07,05,16,00,31.30
2015,07,05,16,01,31.20
2015,07,05,16,02,31.20
2015,07,05,16,03,31.10
2015,07,05,16,04,31.20
2015,07,05,16,05,31.20
2015,07,05,16,06,31.30
2015,07,05,16,07,31.30
2015,07,05,16,08,31.40
2015,07,05,16,09,31.40
2015,07,05,16,10,31.40
2015,07,05,16,11,31.50
2015,07,05,16,12,31.50
2015,07,05,16,13,31.50
2015,07,05,16,14,31.60
2015,07,05,16,15,31.60
2015,07,05,16,16,31.60
2015,07,05,16,17,31.40
2015,07,05,16,18,31.20
2015,07,05,16,19,31.00
2015,07,05,16,20,30.80
2015,07,05,16,21,30.70
2015,07,05,16,22,30.70
2015,07,05,16,23,30.60
2015,07,05,16,24,30.60
2015,07,05,16,25,30.60
2015,07,05,16,26,30.60
2015,07,05,16,27,30.60
2015,07,05,16,28,30.50
2015,07,05,16,29,30.30
2015,07,05,16,30,30.20
2015,07,05,16,31,30.20
2015,07,05,16,32,30.20
2015,07,05,16,33,30.10
2015,07,05,16,34,30.10
2015,07,05,16,35,29.90
2015,07,05,16,36,29.90
2015,07,05,16,37,29.90
2015,07,05,16,38,29.90
2015,07,05,16,39,30.00
2015,07,05,16,40,30.00
2015,07,05,16,41,30.10
2015,07,05,16,42,30.10
2015,07,05,16,43,30.10
2015,07,05,16,44,30.10
2015,07,05,16,45,30.10
2015,07,05,16,46,30.10
2015,07,05,16,47,30.10
2015,07,05,16,48,30.10
2015,07,05,16,49,30.10
2015,07,05,16,50,30.10
2015,07,05,16,51,30.10
2015,07,05,16,52,30.10
2015,07,05,16,53,30.10
2015,07,05,16,54,30.10
2015,07,05,16,55,30.10
2015,07,05,16,56,30.10
2015,07,05,16,57,30.10
2015,07,05,16,58,30.10
2015,07,05,16,59,30.10
2015,07,05,17,00,30.10
2015,07,05,17,01,30.00
2015,07,05,17,02,29.90
2015,07,05,17,03,29.90
2015,07,05,17,04,30.00
2015,07,05,17,05,29.90
2015,07,05,17,06,29.90
2015,07,05,17,07,30.00
2015,07,05,17,08,30.10
2015,07,05,17,09,30.10
2015,07,05,17,10,30.10
2015,07,05,17,11,30.10
2015,07,05,17,12,30.10
2015,07,05,17,13,30.10
2015,07,05,17,14,30.10
2015,07,05,17,15,30.10
2015,07,05,17,16,30.00
2015,07,05,17,17,29.90
2015,07,05,17,18,29.90
2015,07,05,17,19,29.90